Weather reports worldwide

Advertisment
Ioannina, Greece (16642): temperature & dewpoint: 15.02.2019 23:00:00 - 21.02.2019 23:00:00 (EET)Ioannina, Greece (16642): reduced air pressure: 15.02.2019 23:00:00 - 21.02.2019 23:00:00 (EET)Ioannina, Greece (16642): visibility: 15.02.2019 23:00:00 - 21.02.2019 23:00:00 (EET)
Date & Time tt [°C] td [°C] ppp [hPa] vv [km]
21.02.2019 23:00:00 - - - -
21.02.2019 22:00:00 - - - -
21.02.2019 21:00:00 8,0 5,0 - 10
21.02.2019 20:00:00 9,2 5,7 1023,1 10
21.02.2019 19:00:00 10,0 3,0 - 10
21.02.2019 18:00:00 - - - -
21.02.2019 17:00:00 - - - -
21.02.2019 16:00:00 - - - -
21.02.2019 15:00:00 - - - -
21.02.2019 14:00:00 12,8 2,3 1022,9 10
21.02.2019 13:00:00 10,0 5,0 - 10
21.02.2019 12:00:00 7,0 6,0 - 10
21.02.2019 11:00:00 4,2 4,2 1026,5 0,4
21.02.2019 10:00:00 2,0 2,0 - 0,2
21.02.2019 09:00:00 1,0 1,0 - 0,2
21.02.2019 08:00:00 1,2 1,2 1026,6 0,2
21.02.2019 07:00:00 - - - -
21.02.2019 06:00:00 - - - -
21.02.2019 05:00:00 - - - -
21.02.2019 04:00:00 - - - -
21.02.2019 03:00:00 - - - -
21.02.2019 02:00:00 - - - -
21.02.2019 01:00:00 - - - -
21.02.2019 00:00:00 - - - -
20.02.2019 23:00:00 - - - -
20.02.2019 22:00:00 - - - -
20.02.2019 21:00:00 5,0 3,0 - 10
20.02.2019 20:00:00 7,2 4,5 1021,6 10
20.02.2019 19:00:00 9,0 6,0 - 10
20.02.2019 18:00:00 - - - -
20.02.2019 17:00:00 - - - -
20.02.2019 16:00:00 - - - -
20.02.2019 15:00:00 - - - -
20.02.2019 14:00:00 10,6 5,4 1021,6 10
20.02.2019 13:00:00 9,0 5,0 - 10
20.02.2019 12:00:00 9,0 5,0 - 10
20.02.2019 11:00:00 7,6 5,4 1023,5 6
20.02.2019 10:00:00 6,0 5,0 - 6
20.02.2019 09:00:00 6,0 5,0 - 6
20.02.2019 08:00:00 5,4 4,5 1023,0 6
20.02.2019 07:00:00 - - - -
20.02.2019 06:00:00 - - - -
20.02.2019 05:00:00 - - - -
20.02.2019 04:00:00 - - - -
20.02.2019 03:00:00 - - - -
20.02.2019 02:00:00 - - - -
20.02.2019 01:00:00 - - - -
20.02.2019 00:00:00 - - - -
19.02.2019 23:00:00 - - - -
19.02.2019 22:00:00 - - - -
19.02.2019 21:00:00 - - - -
19.02.2019 20:00:00 8,0 4,3 1022,3 10
19.02.2019 19:00:00 - - - -
19.02.2019 18:00:00 - - - -
19.02.2019 17:00:00 - - - -
19.02.2019 16:00:00 - - - -
19.02.2019 15:00:00 - - - -
19.02.2019 14:00:00 12,6 -2,0 1021,8 10
19.02.2019 13:00:00 11,0 -2,0 - 10
19.02.2019 12:00:00 8,0 0,0 - 10
19.02.2019 11:00:00 5,8 0,7 1024,6 10
19.02.2019 10:00:00 2,0 1,0 - 7
19.02.2019 09:00:00 -2,0 -2,0 - 2,5
19.02.2019 08:00:00 -3,4 -4,4 1026,9 1,0
19.02.2019 07:00:00 - - - -
19.02.2019 06:00:00 - - - -
19.02.2019 05:00:00 - - - -
19.02.2019 04:00:00 - - - -
19.02.2019 03:00:00 - - - -
19.02.2019 02:00:00 - - - -
19.02.2019 01:00:00 - - - -
19.02.2019 00:00:00 - - - -
18.02.2019 23:00:00 - - - -
18.02.2019 22:00:00 - - - -
18.02.2019 21:00:00 8,0 6,0 - 10
18.02.2019 20:00:00 8,6 5,5 1023,8 10
18.02.2019 19:00:00 10,0 5,0 - 10
18.02.2019 18:00:00 - - - -
18.02.2019 17:00:00 - - - -
18.02.2019 16:00:00 - - - -
18.02.2019 15:00:00 - - - -
18.02.2019 14:00:00 15,2 0,3 1022,3 10
18.02.2019 13:00:00 10,0 -5,0 - 10
18.02.2019 12:00:00 8,0 -4,0 - 10
18.02.2019 11:00:00 5,6 -1,4 1026,2 10
18.02.2019 10:00:00 3,0 -2,0 - 10
18.02.2019 09:00:00 0,0 -2,0 - 10
18.02.2019 08:00:00 -1,6 -3,0 1027,9 10
18.02.2019 07:00:00 - - - -
18.02.2019 06:00:00 - - - -
18.02.2019 05:00:00 - - - -
18.02.2019 04:00:00 - - - -
18.02.2019 03:00:00 - - - -
18.02.2019 02:00:00 - - - -
18.02.2019 01:00:00 - - - -
18.02.2019 00:00:00 - - - -
17.02.2019 23:00:00 - - - -
17.02.2019 22:00:00 - - - -
17.02.2019 21:00:00 4,0 2,0 - 10
17.02.2019 20:00:00 6,0 0,9 1025,5 10
17.02.2019 19:00:00 9,0 1,0 - 10
17.02.2019 18:00:00 10,0 -4,0 - 10
17.02.2019 17:00:00 11,2 -7,3 1023,5 10
17.02.2019 16:00:00 11,0 -9,0 - 10
17.02.2019 15:00:00 - - - -
17.02.2019 14:00:00 11,2 -9,5 1024,6 10
17.02.2019 13:00:00 10,0 -5,0 - 10
17.02.2019 12:00:00 9,0 -6,0 - 10
17.02.2019 11:00:00 6,8 -3,1 1027,8 10
17.02.2019 10:00:00 4,0 -1,0 - 10
17.02.2019 09:00:00 -1,0 -3,0 - 10
17.02.2019 08:00:00 -2,2 -3,6 1029,6 10
17.02.2019 07:00:00 - - - -
17.02.2019 06:00:00 - - - -
17.02.2019 05:00:00 - - - -
17.02.2019 04:00:00 - - - -
17.02.2019 03:00:00 - - - -
17.02.2019 02:00:00 - - - -
17.02.2019 01:00:00 - - - -
17.02.2019 00:00:00 - - - -
16.02.2019 23:00:00 - - - -
16.02.2019 22:00:00 - - - -
16.02.2019 21:00:00 - - - -
16.02.2019 20:00:00 6,8 -4,7 1026,2 10
16.02.2019 19:00:00 - - - -
16.02.2019 18:00:00 - - - -
16.02.2019 17:00:00 - - - -
16.02.2019 16:00:00 - - - -
16.02.2019 15:00:00 - - - -
16.02.2019 14:00:00 9,4 -6,2 1025,3 10
16.02.2019 13:00:00 8,0 -6,0 - 10
16.02.2019 12:00:00 8,0 -6,0 - 10
16.02.2019 11:00:00 7,0 -6,1 1026,7 10
16.02.2019 10:00:00 7,0 -6,0 - 10
16.02.2019 09:00:00 6,0 -5,0 - 10
16.02.2019 08:00:00 3,8 -7,1 1026,3 10
16.02.2019 07:00:00 - - - -
16.02.2019 06:00:00 - - - -
16.02.2019 05:00:00 - - - -
16.02.2019 04:00:00 - - - -
16.02.2019 03:00:00 - - - -
16.02.2019 02:00:00 - - - -
16.02.2019 01:00:00 - - - -
16.02.2019 00:00:00 - - - -
15.02.2019 23:00:00 - - - -

tt = temperature
td = dewpoint
ppp = reduced air pressure
vv = visibility

Next stations